| time (UTC) | temp F | wind direction | speed MPH | gust MPH | rain 1hr in | rain 24hr in | rain mn in | humidity % | barometer mb |
| 20260901212502 | 76 | 298 | 0.0 | 1.0 | 0.00 | 1.13 | 1.13 | 87 | 1014.3 |
| 20260901212002 | 76 | 295 | 1.0 | 3.0 | 0.00 | 1.13 | 1.13 | 87 | 1014.3 |
| 20260901211502 | 76 | 121 | 1.0 | 2.0 | 0.00 | 1.13 | 1.13 | 87 | 1014.3 |
| 20260901210003 | 77 | 157 | 0.0 | 0.0 | 0.00 | 1.13 | 1.13 | 87 | 1014.4 |
| 20260901205003 | 77 | 319 | 0.0 | 1.0 | 0.00 | 1.13 | 1.13 | 87 | 1014.3 |
| 20260901204502 | 77 | 338 | 0.0 | 0.0 | 0.00 | 1.13 | 1.13 | 87 | 1014.2 |
| 20260901204003 | 77 | 338 | 0.0 | 0.0 | 0.00 | 1.13 | 1.13 | 87 | 1014.3 |
| 20260901203002 | 77 | 337 | 0.0 | 2.0 | 0.00 | 1.13 | 1.13 | 87 | 1014.1 |
| 20260901202503 | 77 | 89 | 1.0 | 7.0 | 0.00 | 1.13 | 1.13 | 87 | 1014.1 |
| 20260901202002 | 78 | 3 | 0.0 | 0.0 | 0.00 | 1.13 | 1.13 | 87 | 1014.1 |
| 20260901201503 | 78 | 124 | 0.0 | 0.0 | 0.00 | 1.13 | 1.13 | 87 | 1014.1 |
| 20260901201002 | 78 | 124 | 0.0 | 0.0 | 0.00 | 1.13 | 1.13 | 87 | 1014.0 |
| 20260901200503 | 78 | 124 | 0.0 | 0.0 | 0.00 | 1.13 | 1.13 | 87 | 1013.9 |
| 20260901200004 | 78 | 198 | 0.0 | 0.0 | 0.00 | 1.13 | 1.13 | 87 | 1014.0 |
| 20260901195503 | 78 | 198 | 0.0 | 0.0 | 0.00 | 1.13 | 1.13 | 87 | 1014.0 |
| 20260901195002 | 78 | 198 | 0.0 | 0.0 | 0.00 | 1.13 | 1.13 | 87 | 1014.0 |
| 20260901194503 | 78 | 148 | 0.0 | 0.0 | 0.00 | 1.13 | 1.13 | 88 | 1013.9 |
| 20260901194003 | 78 | 136 | 0.0 | 0.0 | 0.00 | 1.13 | 1.13 | 88 | 1014.0 |
| 20260901193502 | 78 | 136 | 0.0 | 0.0 | 0.00 | 1.13 | 1.13 | 88 | 1014.1 |
| 20260901193002 | 78 | 141 | 0.0 | 0.0 | 0.00 | 1.13 | 1.13 | 88 | 1014.0 |
| 20260901192502 | 78 | 190 | 1.0 | 3.0 | 0.00 | 1.13 | 1.13 | 88 | 1014.0 |
| 20260901192003 | 78 | 222 | 0.0 | 1.0 | 0.00 | 1.13 | 1.13 | 88 | 1014.0 |
| 20260901191003 | 78 | 147 | 1.0 | 3.0 | 0.01 | 1.13 | 1.13 | 88 | 1014.1 |
| 20260901190502 | 77 | 219 | 1.0 | 2.0 | 0.01 | 1.13 | 1.13 | 88 | 1014.0 |
| 20260901190003 | 77 | 185 | 0.0 | 2.0 | 0.01 | 1.13 | 1.13 | 89 | 1014.0 |
| 20260901185503 | 77 | 223 | 1.0 | 2.0 | 0.01 | 1.13 | 1.13 | 89 | 1014.0 |
| 20260901185003 | 77 | 258 | 0.0 | 3.0 | 0.01 | 1.13 | 1.13 | 89 | 1013.9 |
| 20260901184502 | 78 | 222 | 1.0 | 3.0 | 0.01 | 1.13 | 1.13 | 89 | 1014.0 |
| 20260901184003 | 77 | 119 | 0.0 | 3.0 | 0.01 | 1.13 | 1.13 | 89 | 1014.0 |
| 20260901183502 | 77 | 219 | 1.0 | 3.0 | 0.01 | 1.13 | 1.13 | 89 | 1014.0 |
| 20260901183004 | 77 | 235 | 2.0 | 3.0 | 0.01 | 1.13 | 1.13 | 89 | 1014.0 |
| 20260901182502 | 77 | 188 | 1.0 | 2.0 | 0.01 | 1.13 | 1.13 | 89 | 1014.0 |
| 20260901182002 | 77 | 140 | 1.0 | 2.0 | 0.01 | 1.13 | 1.13 | 89 | 1014.1 |
| 20260901181002 | 77 | 174 | 1.0 | 3.0 | 0.00 | 1.12 | 1.12 | 90 | 1014.1 |
| 20260901180004 | 76 | 171 | 1.0 | 3.0 | 0.00 | 1.12 | 1.12 | 89 | 1014.1 |
| 20260901175502 | 76 | 155 | 2.0 | 5.0 | 0.00 | 1.12 | 1.12 | 89 | 1014.1 |
| 20260901175003 | 76 | 125 | 1.0 | 3.0 | 0.00 | 1.12 | 1.12 | 89 | 1014.2 |
| 20260901174503 | 75 | 172 | 0.0 | 0.0 | 0.00 | 1.12 | 1.12 | 89 | 1014.1 |
| 20260901174003 | 75 | 209 | 0.0 | 0.0 | 0.01 | 1.12 | 1.12 | 89 | 1014.1 |
| 20260901173502 | 75 | 172 | 0.0 | 0.0 | 0.01 | 1.12 | 1.12 | 89 | 1014.3 |
| 20260901173002 | 75 | 178 | 0.0 | 1.0 | 0.01 | 1.12 | 1.12 | 89 | 1014.5 |
| 20260901172502 | 75 | 224 | 1.0 | 3.0 | 0.01 | 1.12 | 1.12 | 89 | 1014.4 |
| 20260901170503 | 74 | 220 | 1.0 | 2.0 | 0.03 | 1.12 | 1.12 | 89 | 1014.5 |
| 20260901170003 | 74 | 220 | 1.0 | 2.0 | 0.03 | 1.12 | 1.12 | 89 | 1014.4 |
| 20260901165003 | 74 | 180 | 1.0 | 2.0 | 0.05 | 1.12 | 1.12 | 89 | 1014.7 |
| 20260901164503 | 74 | 184 | 1.0 | 3.0 | 0.05 | 1.12 | 1.12 | 89 | 1014.9 |
| 20260901164003 | 74 | 190 | 2.0 | 3.0 | 0.04 | 1.11 | 1.11 | 89 | 1014.9 |
| 20260901163003 | 74 | 133 | 1.0 | 3.0 | 0.05 | 1.11 | 1.11 | 89 | 1015.1 |
| 20260901162504 | 73 | 141 | 1.0 | 2.0 | 0.05 | 1.11 | 1.11 | 89 | 1015.3 |
| 20260901162003 | 73 | 192 | 1.0 | 2.0 | 0.05 | 1.11 | 1.11 | 89 | 1015.2 |
| 20260901161503 | 73 | 170 | 1.0 | 2.0 | 0.04 | 1.10 | 1.10 | 89 | 1015.3 |
| 20260901161003 | 73 | 178 | 1.0 | 2.0 | 0.04 | 1.10 | 1.10 | 89 | 1015.3 |
| 20260901160502 | 73 | 171 | 2.0 | 3.0 | 0.03 | 1.09 | 1.09 | 89 | 1015.5 |
| 20260901155503 | 73 | 223 | 0.0 | 2.0 | 0.03 | 1.08 | 1.08 | 89 | 1015.9 |
| 20260901155003 | 73 | 226 | 2.0 | 3.0 | 0.06 | 1.07 | 1.07 | 89 | 1015.7 |
| 20260901154504 | 73 | 210 | 1.0 | 2.0 | 0.11 | 1.07 | 1.07 | 89 | 1015.5 |
| 20260901154003 | 73 | 226 | 1.0 | 3.0 | 0.11 | 1.07 | 1.07 | 89 | 1015.5 |
| 20260901153504 | 73 | 170 | 2.0 | 3.0 | 0.11 | 1.07 | 1.07 | 89 | 1015.5 |
| 20260901153004 | 73 | 192 | 0.0 | 2.0 | 0.10 | 1.06 | 1.06 | 89 | 1015.5 |
| 20260901152503 | 73 | 182 | 1.0 | 7.0 | 0.10 | 1.06 | 1.06 | 89 | 1015.4 |
| 20260901151003 | 73 | 224 | 1.0 | 2.0 | 0.11 | 1.06 | 1.06 | 89 | 1015.6 |
| 20260901145503 | 72 | 145 | 1.0 | 3.0 | 0.10 | 1.05 | 1.05 | 89 | 1015.8 |
| 20260901145003 | 72 | 183 | 1.0 | 3.0 | 0.06 | 1.01 | 1.01 | 89 | 1016.1 |
| 20260901144503 | 72 | 207 | 0.0 | 0.0 | 0.01 | 0.96 | 0.96 | 89 | 1016.2 |
| 20260901144004 | 72 | 207 | 0.0 | 1.0 | 0.01 | 0.96 | 0.96 | 89 | 1016.1 |
| 20260901143504 | 72 | 207 | 0.0 | 0.0 | 0.01 | 0.96 | 0.96 | 89 | 1016.0 |
| 20260901143003 | 72 | 207 | 0.0 | 0.0 | 0.01 | 0.96 | 0.96 | 89 | 1016.0 |
| 20260901142504 | 72 | 207 | 0.0 | 1.0 | 0.01 | 0.96 | 0.96 | 89 | 1015.9 |
| 20260901142003 | 72 | 177 | 1.0 | 2.0 | 0.01 | 0.96 | 0.96 | 89 | 1015.8 |
| 20260901141502 | 72 | 194 | 1.0 | 2.0 | 0.00 | 0.95 | 0.95 | 89 | 1015.9 |
| 20260901141003 | 72 | 171 | 1.0 | 3.0 | 0.00 | 0.95 | 0.95 | 89 | 1015.9 |
| 20260901140503 | 72 | 172 | 0.0 | 1.0 | 0.00 | 0.95 | 0.95 | 89 | 1015.9 |
| 20260901140004 | 72 | 229 | 0.0 | 2.0 | 0.00 | 0.95 | 0.95 | 89 | 1015.9 |
| 20260901135503 | 72 | 192 | 1.0 | 3.0 | 0.00 | 0.95 | 0.95 | 89 | 1015.9 |
| 20260901135004 | 72 | 219 | 0.0 | 1.0 | 0.00 | 0.95 | 0.95 | 89 | 1015.8 |
| 20260901134502 | 72 | 219 | 0.0 | 1.0 | 0.00 | 0.95 | 0.95 | 89 | 1015.6 |
| 20260901133503 | 72 | 203 | 1.0 | 2.0 | 0.00 | 0.95 | 0.95 | 89 | 1015.7 |
| 20260901133002 | 72 | 148 | 1.0 | 2.0 | 0.00 | 0.95 | 0.95 | 89 | 1015.5 |
| 20260901131004 | 72 | 227 | 1.0 | 2.0 | 0.00 | 0.95 | 0.95 | 89 | 1015.6 |
| 20260901130503 | 72 | 182 | 0.0 | 2.0 | 0.00 | 0.95 | 0.95 | 89 | 1015.6 |
| 20260901125503 | 72 | 179 | 0.0 | 1.0 | 0.00 | 0.95 | 0.95 | 89 | 1015.7 |
| 20260901124503 | 71 | 198 | 1.0 | 1.0 | 0.00 | 0.95 | 0.95 | 89 | 1015.9 |
| 20260901123502 | 71 | 218 | 1.0 | 2.0 | 0.00 | 0.95 | 0.95 | 89 | 1015.9 |
| 20260901123003 | 71 | 184 | 1.0 | 2.0 | 0.00 | 0.95 | 0.95 | 89 | 1015.9 |
| 20260901122502 | 71 | 182 | 1.0 | 2.0 | 0.00 | 0.95 | 0.95 | 89 | 1015.9 |
| 20260901122002 | 71 | 182 | 0.0 | 1.0 | 0.00 | 0.95 | 0.95 | 89 | 1016.1 |
| 20260901121502 | 71 | 182 | 0.0 | 0.0 | 0.00 | 0.95 | 0.95 | 89 | 1016.2 |
| 20260901121003 | 71 | 182 | 0.0 | 2.0 | 0.00 | 0.95 | 0.95 | 89 | 1016.0 |
| 20260901120502 | 71 | 172 | 1.0 | 2.0 | 0.00 | 0.95 | 0.95 | 89 | 1015.9 |
| 20260901120003 | 71 | 172 | 1.0 | 2.0 | 0.00 | 0.95 | 0.95 | 89 | 1015.9 |
| 20260901115003 | 70 | 212 | 1.0 | 2.0 | 0.00 | 0.95 | 0.95 | 89 | 1015.9 |
| 20260901114503 | 70 | 214 | 0.0 | 2.0 | 0.00 | 0.95 | 0.95 | 89 | 1015.9 |
| 20260901114003 | 70 | 182 | 0.0 | 1.0 | 0.00 | 0.95 | 0.95 | 89 | 1015.8 |
| 20260901113503 | 70 | 180 | 1.0 | 3.0 | 0.00 | 0.95 | 0.95 | 88 | 1015.9 |
| 20260901113003 | 70 | 199 | 0.0 | 1.0 | 0.00 | 0.95 | 0.95 | 88 | 1016.0 |
| 20260901112503 | 70 | 199 | 0.0 | 2.0 | 0.00 | 0.95 | 0.95 | 88 | 1016.0 |
| 20260901112003 | 70 | 244 | 1.0 | 2.0 | 0.00 | 0.95 | 0.95 | 88 | 1016.0 |
| 20260901111503 | 70 | 227 | 0.0 | 3.0 | 0.00 | 0.95 | 0.95 | 88 | 1016.1 |
| 20260901110503 | 70 | 176 | 1.0 | 3.0 | 0.00 | 0.95 | 0.95 | 89 | 1015.9 |
| 20260901110004 | 70 | 172 | 1.0 | 3.0 | 0.00 | 0.95 | 0.95 | 89 | 1015.9 |
| 20260901105502 | 70 | 177 | 1.0 | 3.0 | 0.00 | 0.95 | 0.95 | 88 | 1015.9 |
| 20260901105004 | 70 | 172 | 1.0 | 2.0 | 0.00 | 0.95 | 0.95 | 88 | 1015.9 |
| 20260901104003 | 70 | 172 | 1.0 | 3.0 | 0.00 | 0.95 | 0.95 | 88 | 1015.7 |
| 20260901103503 | 70 | 172 | 1.0 | 2.0 | 0.00 | 0.95 | 0.95 | 88 | 1015.7 |
| 20260901102003 | 70 | 177 | 1.0 | 2.0 | 0.00 | 0.95 | 0.95 | 88 | 1015.6 |
| 20260901101503 | 70 | 177 | 1.0 | 3.0 | 0.00 | 0.95 | 0.95 | 88 | 1015.7 |
| 20260901101003 | 70 | 177 | 1.0 | 3.0 | 0.00 | 0.95 | 0.95 | 88 | 1015.7 |
| 20260901100503 | 70 | 197 | 0.0 | 0.0 | 0.00 | 0.95 | 0.95 | 88 | 1015.8 |
| 20260901100004 | 70 | 192 | 0.0 | 0.0 | 0.00 | 0.95 | 0.95 | 88 | 1015.7 |
| 20260901095503 | 70 | 225 | 0.0 | 0.0 | 0.00 | 0.95 | 0.95 | 88 | 1015.6 |
| 20260901095004 | 70 | 194 | 0.0 | 0.0 | 0.00 | 0.95 | 0.95 | 88 | 1015.5 |
| 20260901094003 | 70 | 194 | 0.0 | 0.0 | 0.00 | 0.95 | 0.95 | 88 | 1015.6 |
| 20260901092503 | 70 | 182 | 0.0 | 0.0 | 0.00 | 0.95 | 0.95 | 88 | 1015.9 |
| 20260901092003 | 70 | 198 | 0.0 | 0.0 | 0.00 | 0.95 | 0.95 | 88 | 1015.9 |
| 20260901091503 | 70 | 203 | 0.0 | 0.0 | 0.00 | 0.95 | 0.95 | 88 | 1015.8 |
| 20260901091003 | 70 | 182 | 0.0 | 0.0 | 0.00 | 0.95 | 0.95 | 88 | 1015.8 |
| 20260901090504 | 70 | 182 | 0.0 | 0.0 | 0.01 | 0.95 | 0.95 | 88 | 1015.8 |
| 20260901090003 | 70 | 182 | 0.0 | 0.0 | 0.01 | 0.95 | 0.95 | 88 | 1015.9 |
| 20260901085503 | 70 | 182 | 0.0 | 0.0 | 0.01 | 0.95 | 0.95 | 88 | 1015.8 |
| 20260901085002 | 70 | 182 | 0.0 | 0.0 | 0.01 | 0.95 | 0.95 | 88 | 1015.9 |
| 20260901084503 | 70 | 182 | 0.0 | 0.0 | 0.01 | 0.95 | 0.95 | 88 | 1016.0 |
| 20260901084003 | 70 | 182 | 0.0 | 0.0 | 0.01 | 0.95 | 0.95 | 88 | 1016.0 |
| 20260901083503 | 70 | 182 | 0.0 | 0.0 | 0.01 | 0.95 | 0.95 | 88 | 1016.1 |
| 20260901083004 | 70 | 182 | 0.0 | 0.0 | 0.01 | 0.95 | 0.95 | 88 | 1016.1 |
| 20260901081003 | 70 | 196 | 0.0 | 0.0 | 0.05 | 0.95 | 0.95 | 87 | 1016.2 |
| 20260901080003 | 70 | 143 | 1.0 | 2.0 | 0.09 | 0.94 | 0.94 | 87 | 1016.3 |
| 20260901075504 | 70 | 165 | 1.0 | 2.0 | 0.14 | 0.94 | 0.94 | 87 | 1016.4 |
| 20260901075002 | 70 | 163 | 1.0 | 2.0 | 0.16 | 0.94 | 0.94 | 87 | 1016.3 |
| 20260901074502 | 70 | 151 | 0.0 | 2.0 | 0.17 | 0.94 | 0.94 | 87 | 1016.3 |
| 20260901074003 | 70 | 173 | 1.0 | 2.0 | 0.17 | 0.94 | 0.94 | 87 | 1016.4 |
| 20260901073502 | 70 | 177 | 1.0 | 2.0 | 0.18 | 0.94 | 0.94 | 87 | 1016.5 |
| 20260901073003 | 70 | 203 | 0.0 | 0.0 | 0.20 | 0.94 | 0.94 | 87 | 1016.6 |
| 20260901072503 | 70 | 182 | 0.0 | 0.0 | 0.21 | 0.94 | 0.94 | 87 | 1016.7 |
| 20260901071502 | 70 | 240 | 0.0 | 1.0 | 0.20 | 0.92 | 0.92 | 87 | 1016.8 |
| 20260901071003 | 70 | 240 | 1.0 | 2.0 | 0.29 | 0.90 | 0.90 | 87 | 1016.6 |
| 20260901070503 | 70 | 168 | 0.0 | 0.0 | 0.37 | 0.89 | 0.89 | 86 | 1016.5 |
| 20260901070003 | 70 | 145 | 0.0 | 0.0 | 0.39 | 0.85 | 0.85 | 86 | 1016.7 |
| 20260901065503 | 71 | 145 | 0.0 | 0.0 | 0.38 | 0.80 | 0.80 | 86 | 1016.8 |
| 20260901065003 | 71 | 145 | 0.0 | 0.0 | 0.39 | 0.78 | 0.78 | 86 | 1016.7 |
| 20260901064503 | 71 | 145 | 0.0 | 0.0 | 0.43 | 0.77 | 0.77 | 86 | 1016.7 |
| 20260901064004 | 71 | 145 | 0.0 | 0.0 | 0.48 | 0.77 | 0.77 | 86 | 1016.7 |
| 20260901063503 | 71 | 145 | 0.0 | 0.0 | 0.53 | 0.76 | 0.76 | 86 | 1016.7 |
| 20260901063004 | 71 | 145 | 0.0 | 0.0 | 0.56 | 0.75 | 0.75 | 85 | 1016.7 |
| 20260901062503 | 71 | 203 | 0.0 | 0.0 | 0.57 | 0.73 | 0.73 | 84 | 1016.6 |
| 20260901062003 | 71 | 182 | 0.0 | 0.0 | 0.61 | 0.73 | 0.73 | 83 | 1016.5 |
| 20260901061503 | 71 | 182 | 0.0 | 1.0 | 0.63 | 0.72 | 0.72 | 82 | 1016.6 |
| 20260901060503 | 71 | 182 | 0.0 | 2.0 | 0.47 | 0.53 | 0.53 | 81 | 1016.9 |
| 20260901060002 | 71 | 182 | 1.0 | 2.0 | 0.43 | 0.48 | 0.48 | 81 | 1016.9 |
| 20260901055503 | 71 | 188 | 0.0 | 0.0 | 0.41 | 0.43 | 0.43 | 81 | 1017.1 |
| 20260901055003 | 71 | 186 | 0.0 | 0.0 | 0.38 | 0.39 | 0.39 | 81 | 1017.2 |
| 20260901054003 | 72 | 153 | 0.0 | 2.0 | 0.29 | 0.29 | 0.29 | 80 | 1017.2 |
| 20260901053003 | 72 | 234 | 0.0 | 0.0 | 0.19 | 0.19 | 0.19 | 79 | 1017.4 |
| 20260901052503 | 72 | 188 | 0.0 | 0.0 | 0.16 | 0.16 | 0.16 | 79 | 1017.4 |
| 20260901052004 | 72 | 188 | 0.0 | 0.0 | 0.12 | 0.12 | 0.12 | 79 | 1017.5 |
| 20260901051502 | 72 | 188 | 0.0 | 0.0 | 0.09 | 0.09 | 0.09 | 78 | 1017.5 |
| 20260901051003 | 72 | 188 | 0.0 | 0.0 | 0.07 | 0.07 | 0.07 | 78 | 1017.4 |
| 20260901050503 | 72 | 188 | 0.0 | 0.0 | 0.06 | 0.06 | 0.06 | 78 | 1017.4 |
| 20260901045502 | 72 | 188 | 0.0 | 0.0 | 0.02 | 0.02 | 0.02 | 77 | 1017.5 |
| 20260901045004 | 72 | 192 | 0.0 | 0.0 | 0.01 | 0.01 | 0.01 | 77 | 1017.4 |
| 20260901044505 | 72 | 195 | 0.0 | 0.0 | 0.01 | 0.01 | 0.01 | 77 | 1017.3 |
| 20260901044003 | 72 | 195 | 0.0 | 0.0 | 0.00 | 0.00 | 0.00 | 77 | 1017.3 |
| 20260901043504 | 72 | 195 | 0.0 | 0.0 | 0.00 | 0.00 | 0.00 | 76 | 1017.3 |
| 20260901043004 | 72 | 195 | 0.0 | 0.0 | 0.00 | 0.00 | 0.00 | 76 | 1017.3 |
| 20260901042503 | 72 | 195 | 0.0 | 0.0 | 0.00 | 0.00 | 0.00 | 76 | 1017.3 |
| 20260901042003 | 72 | 167 | 0.0 | 0.0 | 0.00 | 0.00 | 0.00 | 76 | 1017.2 |
| 20260901041005 | 72 | 167 | 0.0 | 0.0 | 0.00 | 0.00 | 0.00 | 76 | 1017.3 |
| 20260901040502 | 72 | 167 | 0.0 | 0.0 | 0.00 | 0.00 | 0.00 | 76 | 1017.2 |
| 20260901040003 | 72 | 145 | 0.0 | 0.0 | 0.00 | 0.00 | 0.00 | 76 | 1017.3 |
| 20260901035502 | 72 | 145 | 0.0 | 0.0 | 0.00 | 0.00 | 0.00 | 76 | 1017.4 |
| 20260901035003 | 72 | 145 | 0.0 | 0.0 | 0.00 | 0.00 | 0.00 | 75 | 1017.5 |
| 20260901034504 | 72 | 145 | 0.0 | 0.0 | 0.00 | 0.00 | 0.00 | 75 | 1017.5 |
| 20260901034003 | 72 | 109 | 0.0 | 0.0 | 0.00 | 0.00 | 0.00 | 75 | 1017.6 |
| 20260901033003 | 72 | 182 | 0.0 | 0.0 | 0.00 | 0.00 | 0.00 | 75 | 1017.7 |
| 20260901032003 | 72 | 182 | 0.0 | 0.0 | 0.00 | 0.00 | 0.00 | 75 | 1017.8 |
| 20260901031504 | 72 | 182 | 0.0 | 0.0 | 0.00 | 0.00 | 0.00 | 74 | 1017.8 |
| 20260901031003 | 72 | 188 | 0.0 | 0.0 | 0.00 | 0.00 | 0.00 | 74 | 1017.9 |
| 20260901030503 | 72 | 188 | 0.0 | 0.0 | 0.00 | 0.00 | 0.00 | 74 | 1017.9 |
| 20260901030004 | 72 | 203 | 0.0 | 0.0 | 0.00 | 0.00 | 0.00 | 74 | 1017.9 |
| 20260901025002 | 72 | 190 | 0.0 | 0.0 | 0.00 | 0.00 | 0.00 | 74 | 1017.9 |
| 20260901024503 | 72 | 172 | 0.0 | 0.0 | 0.00 | 0.00 | 0.00 | 74 | 1018.0 |
| 20260901023504 | 72 | 182 | 0.0 | 0.0 | 0.00 | 0.00 | 0.00 | 74 | 1018.1 |
| 20260901022502 | 72 | 172 | 0.0 | 0.0 | 0.00 | 0.00 | 0.00 | 74 | 1018.1 |
| 20260901022002 | 72 | 172 | 0.0 | 0.0 | 0.00 | 0.00 | 0.00 | 74 | 1018.1 |
| 20260901021503 | 72 | 172 | 0.0 | 0.0 | 0.00 | 0.00 | 0.00 | 74 | 1018.1 |
| 20260901021003 | 72 | 172 | 0.0 | 1.0 | 0.00 | 0.00 | 0.00 | 74 | 1018.2 |
| 20260901020503 | 72 | 172 | 0.0 | 1.0 | 0.00 | 0.00 | 0.00 | 73 | 1018.2 |
| 20260901020003 | 72 | 172 | 1.0 | 2.0 | 0.00 | 0.01 | 0.00 | 73 | 1018.1 |
| 20260901015003 | 72 | 197 | 1.0 | 3.0 | 0.00 | 0.01 | 0.00 | 73 | 1018.1 |
| 20260901014504 | 72 | 217 | 0.0 | 2.0 | 0.00 | 0.02 | 0.00 | 73 | 1018.2 |
| 20260901014003 | 72 | 189 | 1.0 | 3.0 | 0.00 | 0.02 | 0.00 | 73 | 1018.2 |
| 20260901013503 | 72 | 172 | 0.0 | 0.0 | 0.00 | 0.02 | 0.00 | 73 | 1018.3 |
| 20260901013003 | 72 | 172 | 0.0 | 0.0 | 0.00 | 0.02 | 0.00 | 73 | 1018.3 |
| 20260901012003 | 72 | 172 | 0.0 | 0.0 | 0.00 | 0.02 | 0.00 | 73 | 1018.3 |
| 20260901011502 | 72 | 172 | 0.0 | 2.0 | 0.00 | 0.02 | 0.00 | 73 | 1018.2 |
| 20260901011003 | 72 | 172 | 1.0 | 2.0 | 0.00 | 0.02 | 0.00 | 73 | 1018.2 |
| 20260901010503 | 72 | 192 | 0.0 | 2.0 | 0.00 | 0.02 | 0.00 | 73 | 1018.2 |
| 20260901010003 | 72 | 199 | 0.0 | 2.0 | 0.00 | 0.02 | 0.00 | 73 | 1018.1 |
| 20260901005503 | 72 | 199 | 1.0 | 3.0 | 0.00 | 0.02 | 0.00 | 73 | 1018.1 |
| 20260901004504 | 72 | 185 | 0.0 | 3.0 | 0.00 | 0.02 | 0.00 | 73 | 1018.2 |
| 20260901004003 | 72 | 229 | 1.0 | 3.0 | 0.00 | 0.02 | 0.00 | 73 | 1018.1 |
| 20260901003503 | 72 | 191 | 0.0 | 0.0 | 0.00 | 0.02 | 0.00 | 73 | 1018.1 |
| 20260901003003 | 72 | 196 | 0.0 | 1.0 | 0.00 | 0.02 | 0.00 | 73 | 1018.1 |
| 20260901002504 | 72 | 192 | 1.0 | 2.0 | 0.00 | 0.02 | 0.00 | 73 | 1018.1 |
| 20260901002004 | 72 | 201 | 0.0 | 2.0 | 0.00 | 0.02 | 0.00 | 73 | 1018.0 |
| 20260901001003 | 72 | 186 | 0.0 | 2.0 | 0.00 | 0.02 | 0.00 | 73 | 1017.9 |
| 20260901000503 | 73 | 203 | 0.0 | 2.0 | 0.00 | 0.02 | 0.00 | 73 | 1017.9 |
| 20260901000004 | 73 | 199 | 1.0 | 3.0 | 0.00 | 0.02 | 0.00 | 73 | 1018.0 |
| 20260831235503 | 73 | 245 | 0.0 | 2.0 | 0.00 | 0.02 | 0.00 | 72 | 1018.1 |
| 20260831235003 | 73 | 193 | 0.0 | 2.0 | 0.00 | 0.02 | 0.00 | 72 | 1018.1 |
| 20260831234503 | 73 | 182 | 1.0 | 3.0 | 0.00 | 0.02 | 0.00 | 72 | 1018.1 |
| 20260831234003 | 73 | 205 | 0.0 | 0.0 | 0.00 | 0.02 | 0.00 | 72 | 1018.2 |
| 20260831233504 | 73 | 201 | 0.0 | 0.0 | 0.00 | 0.02 | 0.00 | 72 | 1018.2 |
| 20260831233003 | 73 | 177 | 0.0 | 2.0 | 0.00 | 0.02 | 0.00 | 72 | 1018.3 |
| 20260831232503 | 73 | 203 | 0.0 | 1.0 | 0.00 | 0.02 | 0.00 | 72 | 1018.3 |
| 20260831232003 | 73 | 207 | 0.0 | 2.0 | 0.00 | 0.02 | 0.00 | 72 | 1018.3 |
| 20260831231503 | 73 | 155 | 0.0 | 3.0 | 0.00 | 0.02 | 0.00 | 72 | 1018.4 |
| 20260831230504 | 74 | 339 | 0.0 | 2.0 | 0.00 | 0.02 | 0.00 | 72 | 1018.5 |
| 20260831230003 | 74 | 172 | 0.0 | 1.0 | 0.00 | 0.02 | 0.00 | 72 | 1018.3 |
| 20260831225503 | 74 | 221 | 0.0 | 1.0 | 0.00 | 0.02 | 0.00 | 72 | 1018.4 |
| 20260831224504 | 74 | 217 | 0.0 | 3.0 | 0.00 | 0.02 | 0.00 | 71 | 1018.3 |
| 20260831223504 | 74 | 194 | 1.0 | 3.0 | 0.00 | 0.02 | 0.00 | 71 | 1018.2 |
| 20260831221504 | 75 | 228 | 0.0 | 2.0 | 0.00 | 0.02 | 0.00 | 71 | 1018.5 |
| 20260831221005 | 75 | 215 | 1.0 | 3.0 | 0.00 | 0.02 | 0.00 | 71 | 1018.5 |
| 20260831220503 | 75 | 197 | 1.0 | 3.0 | 0.00 | 0.02 | 0.00 | 70 | 1018.4 |
| 20260831220003 | 75 | 209 | 1.0 | 3.0 | 0.00 | 0.02 | 0.00 | 71 | 1018.5 |
| 20260831215503 | 75 | 237 | 1.0 | 3.0 | 0.00 | 0.02 | 0.00 | 71 | 1018.4 |
| 20260831215003 | 75 | 167 | 1.0 | 3.0 | 0.00 | 0.02 | 0.00 | 71 | 1018.4 |
| 20260831214503 | 75 | 208 | 1.0 | 3.0 | 0.00 | 0.02 | 0.00 | 71 | 1018.3 |
| 20260831214003 | 75 | 194 | 1.0 | 3.0 | 0.00 | 0.02 | 0.00 | 71 | 1018.4 |
| 20260831213503 | 75 | 171 | 1.0 | 3.0 | 0.00 | 0.02 | 0.00 | 71 | 1018.4 |
| 20260831213003 | 75 | 209 | 0.0 | 3.0 | 0.00 | 0.02 | 0.00 | 71 | 1018.4 |